Вернуться в каталог

YAOGAN 9C

АктивенВоенныеLEO
NORAD 36415·PAYLOAD·🇨🇳 China

Запущен Mar 5, 2010 с Jiuquan Satellite Launch Center

Loading…

Ближайшие Пролёты (ближайшие 24 часа)

TLE

СвежийSource: Space-Track

Эпоха: Sep 14, 2026, 15:31 UTC

1 36415U 10009C   26257.64675222 -.00000003  00000-0  61386-4 0  9997
2 36415  63.3631 126.8349 0546667  21.9503 340.3994 13.45725843811947

Отслеживайте YAOGAN 9C в реальном времени с AllMySat

Download on the App Store